Regional Weather Roundup
Issued by NWS Memphis, TN

Home | Current Version | Previous Version | Text Only | Print | Product List | Glossary On
Versions: 1 2 3 4 5 6 7 8 9 10 11 12 13 14 15 16 17 18 19 20 21 22 23 24 25 26 27 28 29 30 31 32 33 34 35 36 37 38 39 40 41 42 43 44 45 46 47 48 49 50
000
ASUS44 KMEG 220000
RWRMEG
MEMPHIS CWA HOURLY WEATHER ROUNDUP
NATIONAL WEATHER SERVICE MEMPHIS TN
700 PM CDT THU AUG 21 2014

...WEST TENNESSEE...

CITY           SKY/WX    TMP DP  RH WIND       PRES   REMARKS
MEMPHIS INTL   PTCLDY    90  72  55 SW5G25    30.03S HX  97
6HR MIN TEMP:  90; 6HR MAX TEMP:  96;

NWS MEMPHIS      N/A     91 N/A N/A MISG        N/A
JACKSON        CLEAR     87  76  69 S5        30.03S HX  97
6HR MIN TEMP:  87; 6HR MAX TEMP:  92;

SAVANNAH       CLEAR     88  75  66 SW5       30.06R HX  97
DYERSBURG      PTCLDY    88  68  51 CALM      30.01F HX  91
6HR MIN TEMP:  88; 6HR MAX TEMP:  91;

UNION CITY     CLEAR     84  75  74 S5        30.00S HX  92
PARIS          CLEAR     84  73  70 SW6       30.03F HX  91


...EASTERN ARKANSAS...

CITY           SKY/WX    TMP DP  RH WIND       PRES   REMARKS
JONESBORO      PTCLDY    88  73  61 S10       29.99S HX  95
6HR MIN TEMP:  88; 6HR MAX TEMP:  95;

WEST MEMPHIS   CLEAR     88  75  65 S7        30.01S HX  97
6HR MIN TEMP:  88; 6HR MAX TEMP:  93;

BATESVILLE     PTCLDY    90  70  51 S12G17    29.99S HX  95
6HR MIN TEMP:  90; 6HR MAX TEMP:  97;

WALNUT RIDGE   MOCLDY    90  70  51 S15       29.96S HX  95
6HR MIN TEMP:  90; 6HR MAX TEMP:  93;

BLYTHEVILLE    PTCLDY    87  78  74 S6        30.00S HX 100
6HR MIN TEMP:  87; 6HR MAX TEMP:  92;

STUTTGART      CLEAR     90  75  62 S8        30.03F HX 100
6HR MIN TEMP:  90; 6HR MAX TEMP:  93;

PINE BLUFF     CLEAR     88  73  61 S9        30.03F HX  95
6HR MIN TEMP:  88; 6HR MAX TEMP:  92;

MONTICELLO     CLEAR     89  74  60 S5        30.06R HX  98
6HR MIN TEMP:  89; 6HR MAX TEMP:  93;



...NORTH MISSISSIPPI...

CITY           SKY/WX    TMP DP  RH WIND       PRES   REMARKS
TUPELO         CLEAR     91  72  53 W3        30.05S HX  98
6HR MIN TEMP:  91; 6HR MAX TEMP:  95;

GREENWOOD      CLEAR     89  76  65 S7        30.06R HX 100
6HR MIN TEMP:  89; 6HR MAX TEMP:  93;

COLUMBUS       CLEAR     91  72  55 N2        30.06R HX  98
6HR MIN TEMP:  91; 6HR MAX TEMP:  96;

STARKVILLE     FAIR      90  70  51 CALM      30.06S HX  95
GOLDEN TRIANGL PTCLDY    93  72  49 N5        30.07R HX 100


...SOUTHEAST MISSOURI...

CITY           SKY/WX    TMP DP  RH WIND       PRES   REMARKS
WEST PLAINS    CLEAR     89  66  46 S7        30.00F HX  91
6HR MIN TEMP:  89; 6HR MAX TEMP:  93;

POPLAR BLUFF   MOCLDY    88  72  58 S7        29.96S HX  94
6HR MIN TEMP:  88; 6HR MAX TEMP:  93;

CAPE GIRARDEAU MOCLDY    86  76  71 S12       29.96F HX  96
6HR MIN TEMP:  86; 6HR MAX TEMP:  90;



...NORTHWEST ALABAMA...

CITY           SKY/WX    TMP DP  RH WIND       PRES   REMARKS
MUSCLE SHOALS  CLEAR     88  71  57 SW6       30.07S HX  94
6HR MIN TEMP:  88; 6HR MAX TEMP:  93;



...MIDDLE TENNESSEE...

CITY           SKY/WX    TMP DP  RH WIND       PRES   REMARKS
NASHVILLE      PTCLDY    88  71  57 SW3       30.05S HX  94
6HR MIN TEMP:  88; 6HR MAX TEMP:  94;

CLARKSVILLE    CLEAR     88  71  57 SW8       30.02F HX  94
6HR MIN TEMP:  87; 6HR MAX TEMP:  92;



...WESTERN KENTUCKY...

CITY           SKY/WX    TMP DP  RH WIND       PRES   REMARKS
PADUCAH        PTCLDY    88  74  63 SW7       29.98F HX  96
6HR MIN TEMP:  88; 6HR MAX TEMP:  94;



...CENTRAL ARKANSAS...

CITY           SKY/WX    TMP DP  RH WIND       PRES   REMARKS
LITTLE ROCK    PTCLDY    88  71  57 S8        30.02S HX  94
6HR MIN TEMP:  88; 6HR MAX TEMP:  92;



SKY/WX REPORTED AS FAIR MEANS FEW OR NO CLOUDS BELOW
12 THOUSAND FEET.



USA.gov is the U.S. government's official web portal to all federal, state and local government web resources and services.